Content
SEND FEEDBACK

Daily
Averages
Monthly
Summary
Venezuela

MAIQUETIA, VENEZUELA


Home > South America > Venezuela
Elevation: 157 feet     Latitude: 10 36N     Longitude: 066 58W

WEATHER
 
SELECT A DAY
Number of Records: 120,611;   Date Range: 1/1/00 - 9/3/14
 
SHARE

PRINT THIS DATA

[ ← Previous Day ]
WEATHER ALMANAC - FEBRUARY 13, 2013
[ Next Day → ]
[ °C ]   °F
Weather ElementAverageHighLow
Temperature77.9 °F84.2 °F (10:30 am)73 °F (7:30 am)
Dewpoint71.3 °F77 °F (1:30 pm)64.4 °F (7:30 am)
Humidity80 %94 % (4:30 am)65 % (9:30 am)
Barometer29.93 in29.98 in (7:30 am)29.89 in (3:30 pm)
Wind Speed2.3 mph5.8 mph (3:30 pm)
Weather ElementAverage
Visibility6.4 mi
Wind DirectionNNE (30 °)

Weather ElementTotal
Precipitation---
Cooling Degree Days13.6 (Base 65)
Growing Degree Days28.6 (Base 50)
Averaged from 24 records on February 13, 2013
WEATHER CONDITIONS BREAKOUT
WIND DIRECTION BREAKOUT
WEATHER BY HOUR - FEBRUARY 13, 2013
[ °C ]   °F
Local TimeTemperatureDewpointHumidityBarometerVisibilityWind DirectionWind SpeedGust SpeedPrecipitationEventsConditions
1:30 AM73.4 °F68.0 °F83 %29.95 in6.2 miCalmPartly Cloudy
2:30 AM73.4 °F68.0 °F83 %29.95 in6.2 miCalmPartly Cloudy
3:30 AM73.4 °F68.0 °F83 %29.95 in6.2 miCalmPartly Cloudy
4:30 AM73.4 °F71.6 °F94 %29.95 in6.2 miCalmPartly Cloudy
5:30 AM73.4 °F69.8 °F88 %29.95 in6.2 miCalmPartly Cloudy
6:30 AM75.2 °F68.0 °F78 %29.95 in6.2 miCalmPartly Cloudy
7:30 AM73.4 °F64.4 °F73 %29.98 in6.2 miCalmPartly Cloudy
7:30 AM73.0 °F65.0 °F68 %29.96 in12.0 miCalmScattered Clouds
8:30 AM78.8 °F69.8 °F74 %29.95 in6.2 miNNE (20°)3.5 mphPartly Cloudy
9:30 AM80.6 °F68.0 °F65 %29.95 in6.2 miNNE (20°)3.5 mphPartly Cloudy
10:30 AM84.2 °F75.2 °F74 %29.98 in6.2 miNNE (20°)3.5 mphPartly Cloudy
11:30 AM84.2 °F75.2 °F74 %29.98 in6.2 miNNE (20°)4.6 mphPartly Cloudy
12:30 PM84.2 °F75.2 °F74 %29.95 in6.2 miNNE (20°)3.5 mphPartly Cloudy
1:30 PM84.2 °F77.0 °F79 %29.95 in6.2 miNNE (20°)3.5 mphPartly Cloudy
2:30 PM82.4 °F77.0 °F84 %29.92 in6.2 miNNE (20°)3.5 mphPartly Cloudy
3:30 PM82.4 °F75.2 °F79 %29.89 in6.2 miNE (50°)5.8 mphPartly Cloudy
4:30 PM82.4 °F75.2 °F79 %29.89 in6.2 miNNE (20°)4.6 mphPartly Cloudy
5:30 PM80.6 °F75.2 °F84 %29.89 in6.2 miENE (70°)2.3 mphScattered Clouds
6:30 PM77.0 °F75.2 °F94 %29.89 in6.2 miENE (70°)3.5 mphScattered Clouds
7:30 PM77.0 °F71.6 °F83 %29.89 in6.2 miENE (70°)3.5 mphPartly Cloudy
8:30 PM77.0 °F71.6 °F83 %29.89 in6.2 miENE (70°)3.5 mphPartly Cloudy
9:30 PM75.2 °F71.6 °F89 %29.92 in6.2 miEast (90°)3.5 mphPartly Cloudy
10:30 PM75.2 °F68.0 °F78 %29.92 in6.2 miESE (110°)2.3 mphPartly Cloudy
11:30 PM75.2 °F68.0 °F78 %29.92 in6.2 miCalmPartly Cloudy
Hourly data recorded from SVMI, located miles away from Maiquetia, Venezuela







STORIES FROM OUR PARTNERS